Lexington Weather

Lexington, Massachusetts, USA

70°F
8/17/2022 6:05pm 
  • Lexington Conditions: Overcast
  • Temperature: 70.3°F / 21.3°CColder 0.6°F than last hour.
  • Dew Point: 59.4°FIncreased 0.9°Fsince last hour.
  • Relative Humidity: 68%Increased 3.0% since last hour.
  • Wind: Calm, 10-min avg: Calm, gust: None
  • Barometer: 29.86 inFalling 0.02  inHg/hr Falling Slowly
  • Visibility: 10 miles
  • Rain Today: 0.00 in
  •   

Regional Weather Roundup
for Boston, MA

        
000
ASUS41 KBOX 141610
RWRBOX

REGIONAL WEATHER ROUNDUP
NATIONAL WEATHER SERVICE BOSTON/NORTON MA
1200 PM EDT SUN AUG 14 2022

NOTE:  "FAIR" INDICATES FEW OR NO CLOUDS BELOW 12,000 FEET WITH NO 
SIGNIFICANT WEATHER AND/OR OBSTRUCTIONS TO VISIBILITY.

MAZALL-141700-
EASTERN MASSACHUSETTS
  
CITY           SKY/WX    TMP DP  RH WIND       PRES   REMARKS
BOSTON         MOSUNNY   77  53  43 SE9       30.03F                  
BEVERLY        MOSUNNY   80  52  37 CALM      30.02F                  
LAWRENCE       MOSUNNY   81  50  33 VRB6      30.05F                  
BEDFORD        MOSUNNY   79  50  36 CALM      30.03F                  
BLUE HILL      NOT AVBL                                               
NORWOOD        MOSUNNY   80  50  34 NW8       30.03F                  
MARSHFIELD     SUNNY     73  55  53 VRB6      30.04F                  
PLYMOUTH       SUNNY     79  55  43 VRB3      30.04F                  
TAUNTON          N/A    N/A N/A N/A MISG      30.03F                  
NEW BEDFORD    SUNNY     79  49  34 VRB3      30.04F                  
$$

MAZALL-141700-
CAPE COD AND THE ISLANDS
  
CITY           SKY/WX    TMP DP  RH WIND       PRES   REMARKS
FALMOUTH       SUNNY     77  54  44 W7        30.04F                  
HYANNIS        PTSUNNY   79  57  46 VRB6      30.03F                  
CHATHAM        SUNNY     79  57  46 VRB5      30.05F                  
NANTUCKET      MOSUNNY   76  60  57 SW10      30.05F                  
MARTHAS VNYRD  SUNNY     79  55  43 NW9       30.05F                  
$$
 
MAZALL-141700-
CENTRAL AND WESTERN MASSACHUSETTS
  
CITY           SKY/WX    TMP DP  RH WIND       PRES   REMARKS
WORCESTER      MOSUNNY   74  46  36 NW9       30.07F                  
FITCHBURG      MOSUNNY   76  42  29 CALM      30.05F                  
ORANGE         MOSUNNY   75  45  34 N6        30.08F                  
SPRINGFIELD    MOSUNNY   77  48  35 N6        30.03F                  
WESTFIELD      MOSUNNY   77  48  35 VRB3      30.05F                  
NORTH ADAMS    NOT AVBL                                               
PITTSFIELD     MOSUNNY   75  49  39 W8        30.08F                  
$$
 
RIZALL-141700-
RHODE ISLAND
  
CITY           SKY/WX    TMP DP  RH WIND       PRES   REMARKS
PROVIDENCE     PTSUNNY   80  47  31 VRB3      30.05F                  
NEWPORT        SUNNY     76  54  46 NW5       30.05F                  
BLOCK ISLAND   SUNNY     75  53  46 W8        30.07F                  
SMITHFIELD     MOSUNNY   78  48  34 VRB6      30.06F                  
WESTERLY       MOSUNNY   77  57  50 S7        30.05F                  
$$
 
CTZALL-141700-
CONNECTICUT
  
CITY           SKY/WX    TMP DP  RH WIND       PRES   REMARKS
BRADLEY INTL   MOSUNNY   80  51  36 VRB6      30.06F                  
HARTFORD       MOSUNNY   79  52  38 NE5       30.05F                  
BRIDGEPORT     MOSUNNY   75  56  51 S9        30.06F                  
DANBURY        MOSUNNY   78  50  37 SW8       30.08F                  
GROTON         MOSUNNY   75  60  59 SW9       30.05F                  
NEW HAVEN      MOSUNNY   80  57  45 S8        30.06F                  
CHESTER        FAIR      81  45  28 CALM      30.07F                  
MERIDEN        MOSUNNY   79  50  36 VRB6      30.06F                  
WILLIMANTIC    PTSUNNY   80  47  31 CALM      30.06F                  
OXFORD         SUNNY     75  50  41 VRB6      30.09F                  
$$

MEZ002-015-021-024-NHZ003-005-008-011-012-014-VTZ005-008-141700-
NORTHERN NEW ENGLAND
  
CITY           SKY/WX    TMP DP  RH WIND       PRES   REMARKS
PORTLAND ME    MOSUNNY   76  52  43 S3        30.02F                  
BANGOR ME      MOSUNNY   76  58  53 VRB3      29.99F                  
CONCORD NH     SUNNY     77  49  37 MISG      30.04F                  
MANCHESTER NH  SUNNY     80  49  33 NW8       30.03F                  
NASHUA NH      MOSUNNY   79  52  38 NW9       30.04F                  
PORTSMOUTH NH  MOSUNNY   78  48  34 SW8       30.02F                  
JAFFREY NH     PTSUNNY   75  46  35 N6        30.08F                  
KEENE NH       SUNNY     74  49  41 VRB5        N/A                   
BURLINGTON VT  MOSUNNY   75  50  41 CALM      30.07F                  
MT. WASHINGTON PTSUNNY   48  45  87 N7          N/A                   
$$

NYZ052-076-141700-
EASTERN NEW YORK
  
CITY           SKY/WX    TMP DP  RH WIND       PRES   REMARKS
ALBANY         MOSUNNY   75  54  47 N3        30.07F                  
NEW YORK CITY  PTSUNNY   79  50  36 VRB7      30.05F                  
$$
 
ANZALL-141700-
MARINE OBSERVATIONS
  
STATION/POSITION TIME  TEMP    WIND        PRES    VSBY  WAVE
                       AIR SEA DIR/SP/G                  HT/PER
                 (UTC) (F)     (DEG/KT/KT) (MB)    (MI)  (FT/S)
BOSTON BUOY      NOT AVBL
BUZZARDS BAY     NOT AVBL
NANTUCKET SOUND  NOT AVBL
MASS BAY-STELLWA NOT AVBL
ISLE OF SHOALS   NOT AVBL
S OF BLOCK IS    NOT AVBL
$$

......................KEY.........................
  SKY/WX - SKY CONDITION/PRESENT WEATHER
  TMP    - TEMPERATURE IN FAHRENHEIT
  DWPT   - DEWPOINT IN FAHRENHEIT
  RH     - RELATIVE HUMIDITY IN PERCENT
  WIND   - DIRECTION AND SPEED IN MPH
  PRES   - MEAN SEA LEVEL PRESSURE IN INCHES OF HG
  WCI    - WIND CHILL INDEX
  VSB    - VISIBILITY IN MILES
  HX     - HEAT INDEX
  TC     - TEMPERATURE IN CELSIUS
  VRB    - VARIABLE WIND DIRECTION
  N/A    - NOT AVAILABLE
  
      

Other recent Regional Weather Roundups

Wed Aug 17, 5:10pm

Wed Aug 17, 4:10pm

Wed Aug 17, 3:10pm

Wed Aug 17, 2:10pm

Wed Aug 17, 1:10pm

Wed Aug 17, 12:10pm

Wed Aug 17, 11:10am

Wed Aug 17, 10:10am

Wed Aug 17, 9:10am

Wed Aug 17, 8:10am

Wed Aug 17, 7:10am

Wed Aug 17, 6:10am

Wed Aug 17, 5:10am

Wed Aug 17, 4:10am

Wed Aug 17, 3:10am

Wed Aug 17, 2:10am

Wed Aug 17, 1:10am

Wed Aug 17, 12:10am

Tue Aug 16, 11:10pm

Tue Aug 16, 10:10pm

Tue Aug 16, 9:10pm

Tue Aug 16, 8:10pm

Tue Aug 16, 7:10pm

Tue Aug 16, 6:10pm

Tue Aug 16, 5:10pm

Tue Aug 16, 4:10pm

Tue Aug 16, 3:10pm

Tue Aug 16, 2:10pm

Tue Aug 16, 1:10pm

Tue Aug 16, 12:10pm

Tue Aug 16, 11:10am

Tue Aug 16, 10:10am

Tue Aug 16, 9:10am

Tue Aug 16, 8:10am

Tue Aug 16, 7:10am

Tue Aug 16, 6:10am

Tue Aug 16, 5:10am

Tue Aug 16, 4:10am

Tue Aug 16, 3:10am

Tue Aug 16, 2:10am

Tue Aug 16, 1:10am

Tue Aug 16, 12:10am

Mon Aug 15, 11:10pm

Mon Aug 15, 10:10pm

Mon Aug 15, 9:10pm

Mon Aug 15, 8:10pm

Mon Aug 15, 7:10pm

Mon Aug 15, 6:10pm

Mon Aug 15, 5:10pm

Mon Aug 15, 4:10pm

Mon Aug 15, 3:10pm

Mon Aug 15, 2:10pm

Mon Aug 15, 1:10pm

Mon Aug 15, 12:10pm

Mon Aug 15, 11:10am

Mon Aug 15, 10:10am

Mon Aug 15, 9:10am

Mon Aug 15, 8:10am

Mon Aug 15, 7:10am

Mon Aug 15, 6:10am

Mon Aug 15, 5:10am

Mon Aug 15, 4:10am

Mon Aug 15, 3:10am

Mon Aug 15, 2:10am

Mon Aug 15, 1:10am

Mon Aug 15, 12:10am

Sun Aug 14, 11:10pm

Sun Aug 14, 10:10pm

Sun Aug 14, 9:10pm

Sun Aug 14, 8:10pm

Sun Aug 14, 7:10pm

Sun Aug 14, 6:10pm

Sun Aug 14, 5:10pm

Sun Aug 14, 4:10pm

Sun Aug 14, 3:10pm

Sun Aug 14, 2:10pm

Sun Aug 14, 1:10pm

Sun Aug 14, 11:10am

Sun Aug 14, 10:10am

Sun Aug 14, 9:10am

Sun Aug 14, 8:10am

Sun Aug 14, 7:10am

Sun Aug 14, 6:10am

Sun Aug 14, 5:10am

Sun Aug 14, 4:10am

Sun Aug 14, 3:10am

Sun Aug 14, 2:10am

Sun Aug 14, 1:10am

Sun Aug 14, 12:10am

Sat Aug 13, 11:10pm

Sat Aug 13, 10:10pm

Sat Aug 13, 9:10pm

Sat Aug 13, 8:10pm

Sat Aug 13, 7:10pm

Sat Aug 13, 6:10pm

Sat Aug 13, 5:10pm

Sat Aug 13, 4:10pm

Sat Aug 13, 3:10pm

Sat Aug 13, 2:10pm

Sat Aug 13, 1:10pm

Sat Aug 13, 12:10pm

Sat Aug 13, 11:10am

Sat Aug 13, 10:10am

Sat Aug 13, 9:10am

Sat Aug 13, 8:10am

Sat Aug 13, 7:10am

Sat Aug 13, 6:10am

Sat Aug 13, 5:10am

Sat Aug 13, 4:10am

Sat Aug 13, 3:10am

Sat Aug 13, 2:10am

Sat Aug 13, 1:10am

Sat Aug 13, 12:10am

Fri Aug 12, 11:10pm

Fri Aug 12, 10:10pm

Fri Aug 12, 9:10pm

Fri Aug 12, 8:10pm

Fri Aug 12, 7:10pm

Fri Aug 12, 6:10pm

Fri Aug 12, 5:10pm

Fri Aug 12, 4:10pm

Fri Aug 12, 3:10pm

Fri Aug 12, 2:10pm

Fri Aug 12, 1:10pm

Fri Aug 12, 12:10pm

Fri Aug 12, 11:10am

Fri Aug 12, 10:10am

Fri Aug 12, 9:10am

Fri Aug 12, 8:10am

Fri Aug 12, 7:10am

Fri Aug 12, 6:10am

Fri Aug 12, 5:10am

Fri Aug 12, 4:10am

Fri Aug 12, 3:10am

Fri Aug 12, 2:10am

Fri Aug 12, 1:10am

Fri Aug 12, 12:10am

Thu Aug 11, 11:10pm

Thu Aug 11, 10:10pm

Thu Aug 11, 9:10pm

Thu Aug 11, 8:10pm

Thu Aug 11, 7:10pm

Thu Aug 11, 6:10pm

Thu Aug 11, 5:10pm

Thu Aug 11, 4:10pm

Thu Aug 11, 3:10pm

Thu Aug 11, 2:10pm

Thu Aug 11, 1:10pm

Thu Aug 11, 12:10pm

Thu Aug 11, 11:10am

Thu Aug 11, 10:10am

Thu Aug 11, 9:10am

Thu Aug 11, 8:10am

Thu Aug 11, 7:10am

Thu Aug 11, 6:10am

Thu Aug 11, 5:10am

Thu Aug 11, 4:10am

Thu Aug 11, 3:10am

Thu Aug 11, 2:10am

Thu Aug 11, 1:10am

Thu Aug 11, 12:10am

Wed Aug 10, 11:10pm

Wed Aug 10, 10:10pm

Wed Aug 10, 9:10pm

Wed Aug 10, 8:10pm

Wed Aug 10, 7:10pm

Wed Aug 10, 6:10pm

Meta data:

ID: 83f400da-125d-412c-a8cb-ccfd4e7cd8bc
Link: https://api.weather.gov/products/83f400da-125d-412c-a8cb-ccfd4e7cd8bc